Terminal Aerodrome Forecast
Issued by NWS Mt. Holly, NJ

Home | Current Version | Previous Version | Text Only | Print | Product List | Glossary On
Versions: 1 2 3 4 5 6 7 8 9 10 11 12 13 14 15 16 17
000
FTUS41 KPHI 211700
TAFRDG
TAF
KRDG 211738Z 2118/2218 00000KT P6SM BKN025
      TEMPO 2118/2120 SCT025 BKN040
     FM212000 23006KT P6SM BKN040
      TEMPO 2122/2201 30015KT 4SM TSRA BKN025CB
     FM220200 00000KT 5SM BR SCT250
     FM221000 00000KT 2SM BR BKN007
     FM221400 00000KT P6SM BKN015=

USA.gov is the U.S. government's official web portal to all federal, state and local government web resources and services.